Pittsburgh, PA

8:11 PM EST on February 05, 2016 (GMT -0500)
Allegheny County

Weather History for KAGC - January, 2014

Change the Weather History Date:

Friday, January 10, 2014

  Actual Average Record
Temperature  
Mean Temperature 39 °F -  
Max Temperature 46 °F 39 °F 52 °F (2000)
Min Temperature 32 °F 25 °F 0 °F (1988)
Degree Days  
Heating Degree Days 26    
Moisture  
Dew Point 36 °F    
Average Humidity 85    
Maximum Humidity 93    
Minimum Humidity 79    
Precipitation  
Precipitation 0.01 in - - ()
Sea Level Pressure  
Sea Level Pressure 30.22 in    
Wind  
Wind Speed 6 mph (SSE)    
Max Wind Speed 12 mph    
Max Gust Speed -    
Visibility 10 miles    
Events      
Averages and records for this station are not official NWS values.
T = Trace of Precipitation, MM = Missing Value Source: NWS Daily Summary

Daily Weather History Graph

Daily Weather History Graph

Search for Another Location

Airport or City:

Trip Planner

Search our weather history database for the weather conditions in past years. The results will help you decide how hot, cold, wet, or windy it might be!

Date:

Astronomy

Jan. 10, 2014 Rise Set
Actual Time 7:42 AM EST 5:12 PM EST
Civil Twilight 7:11 AM EST 5:42 PM EST
Nautical Twilight 6:38 AM EST 6:16 PM EST
Astronomical Twilight 6:05 AM EST 6:49 PM EST
Moon 1:15 PM EST (1/10) 2:47 AM EST (1/10)
Length of Visible Light 10h 30m
Length of Day
9h 30m
Waxing Gibbous, 75% of the Moon is Illuminated
Jan 10
Waxing Gibbous
Jan 15
Full
Jan 24
Last Quarter
Jan 30
New
Feb 6
First Quarter

Hourly Weather History & Observations

Time (EST) Temp. Windchill Dew Point Humidity Pressure Visibility Wind Dir Wind Speed Gust Speed Precip Events Conditions
12:53 AM 32.0 °F 28.7 °F 27.0 °F 82% 30.36 in 10.0 mi SE 3.5 mph - 0.01 in   Overcast
1:53 AM 33.1 °F 30.0 °F 30.0 °F 89% 30.35 in 7.0 mi SSE 3.5 mph - N/A   Overcast
2:53 AM 34.0 °F 28.8 °F 30.9 °F 89% 30.35 in 10.0 mi SSE 5.8 mph - N/A   Overcast
3:53 AM 35.1 °F 31.0 °F 30.0 °F 82% 30.32 in 10.0 mi SE 4.6 mph - N/A   Overcast
4:42 AM 33.8 °F 29.6 °F 30.2 °F 87% 30.27 in 9.0 mi SSE 4.6 mph - N/A   Overcast
4:53 AM 34.0 °F 31.0 °F 30.9 °F 89% 30.32 in 10.0 mi SE 3.5 mph - N/A   Overcast
5:09 AM 35.6 °F - 30.2 °F 81% 30.26 in 10.0 mi Calm Calm - N/A   Overcast
5:53 AM 34.0 °F - 30.0 °F 85% 30.31 in 10.0 mi Calm Calm - N/A   Overcast
6:39 AM 33.8 °F 28.6 °F 30.2 °F 87% 30.26 in 10.0 mi SE 5.8 mph - N/A   Overcast
6:53 AM 34.0 °F 28.8 °F 30.0 °F 85% 30.31 in 10.0 mi SSE 5.8 mph - N/A   Overcast
7:29 AM 35.6 °F 30.7 °F 30.2 °F 81% 30.26 in 10.0 mi SSE 5.8 mph - N/A   Overcast
7:53 AM 35.1 °F 30.1 °F 30.0 °F 82% 30.32 in 10.0 mi SSE 5.8 mph - N/A   Overcast
8:53 AM 37.0 °F 32.4 °F 30.9 °F 79% 30.33 in 10.0 mi South 5.8 mph - N/A   Overcast
9:03 AM 37.4 °F 32.1 °F 32.0 °F 81% 30.28 in 10.0 mi South 6.9 mph - N/A   Mostly Cloudy
9:53 AM 37.9 °F 32.1 °F 33.1 °F 83% 30.33 in 10.0 mi South 8.1 mph - N/A   Overcast
10:16 AM 37.4 °F 30.8 °F 35.6 °F 93% 30.28 in 3.0 mi South 9.2 mph - N/A   Overcast
10:43 AM 39.2 °F 33.0 °F 35.6 °F 87% 30.28 in 7.0 mi South 9.2 mph - N/A   Overcast
10:47 AM 39.2 °F 33.0 °F 35.6 °F 87% 30.27 in 8.0 mi South 9.2 mph - N/A   Overcast
10:53 AM 39.0 °F 31.8 °F 36.0 °F 89% 30.32 in 8.0 mi South 11.5 mph - N/A   Overcast
11:00 AM 39.2 °F 32.5 °F 35.6 °F 87% 30.27 in 9.0 mi South 10.4 mph - N/A   Overcast
11:13 AM 39.2 °F 32.0 °F 37.4 °F 93% 30.26 in 10.0 mi SSW 11.5 mph - N/A   Overcast
11:53 AM 42.1 °F 37.1 °F 37.9 °F 85% 30.28 in 10.0 mi South 8.1 mph - N/A   Overcast
12:06 PM 42.8 °F 38.0 °F 37.4 °F 81% 30.22 in 10.0 mi South 8.1 mph - N/A   Overcast
12:16 PM 42.8 °F 37.5 °F 37.4 °F 81% 30.21 in 10.0 mi South 9.2 mph - N/A   Overcast
12:44 PM 44.6 °F 39.2 °F 39.2 °F 81% 30.20 in 10.0 mi South 10.4 mph - N/A   Overcast
12:53 PM 44.1 °F 39.0 °F 39.0 °F 82% 30.25 in 10.0 mi South 9.2 mph - N/A   Overcast
1:53 PM 45.0 °F 42.6 °F 39.9 °F 82% 30.22 in 10.0 mi South 4.6 mph - N/A   Overcast
2:00 PM 44.6 °F 42.2 °F 39.2 °F 81% 30.18 in 10.0 mi South 4.6 mph - N/A   Overcast
2:53 PM 46.9 °F - 42.1 °F 83% 30.19 in 10.0 mi SSE 6.9 mph - N/A   Overcast
3:24 PM 46.4 °F 41.9 °F 42.8 °F 87% 30.13 in 10.0 mi SSE 9.2 mph - N/A   Overcast
3:53 PM 46.9 °F - 42.1 °F 83% 30.16 in 10.0 mi SSE 8.1 mph - N/A   Overcast
4:53 PM 46.0 °F 43.1 °F 42.1 °F 86% 30.15 in 10.0 mi SE 5.8 mph - N/A   Mostly Cloudy
5:00 PM 46.4 °F 43.5 °F 42.8 °F 87% 30.11 in 10.0 mi SE 5.8 mph - N/A   Overcast
5:53 PM 46.0 °F 43.1 °F 42.1 °F 86% 30.12 in 10.0 mi SE 5.8 mph - N/A   Overcast
6:11 PM 44.6 °F 42.2 °F 41.0 °F 87% 30.08 in 10.0 mi ESE 4.6 mph - N/A   Scattered Clouds
6:53 PM 45.0 °F 43.5 °F 42.1 °F 90% 30.10 in 10.0 mi East 3.5 mph - N/A   Clear
7:53 PM 45.0 °F 40.6 °F 41.0 °F 86% 30.05 in 10.0 mi ESE 8.1 mph - N/A   Clear
8:53 PM 44.1 °F 40.8 °F 41.0 °F 89% 30.01 in 10.0 mi ESE 5.8 mph - N/A   Clear
9:53 PM 45.0 °F 41.2 °F 41.0 °F 86% 29.99 in 10.0 mi ESE 6.9 mph - N/A   Partly Cloudy
10:53 PM 46.0 °F 42.5 °F 41.0 °F 83% 29.95 in 10.0 mi SE 6.9 mph - N/A   Mostly Cloudy
11:53 PM 46.9 °F - 42.1 °F 83% 29.91 in 10.0 mi SE 6.9 mph - N/A   Mostly Cloudy